This demonstration page uses our WeatherBlox Daily Observations layout. Learn more.

Left ArrowRight Arrow

39.01783, -85.05884

Hourly Observations for March 7, 2021

Temp ( °F °C ) Dew Point ( °F °C ) Humidity (%) Winds ( mph kmh ) Pressure ( in mb ) Visibility ( mi km ) Precip ( " mm )
12:52 am 00:52 Mostly Clear 28 -2.2 15 -9.4 58 58 SW 3 6 30.28 1026 10 16.0934 0 0
1:52 am 01:52 Mostly Cloudy 30 -1.1 19 -7.2 64 64 Calm 30.3 1026 10 16.0934 0 0
2:52 am 02:52 Mostly Clear 31 -0.6 19 -7.2 61 61 NNW 10 17 30.31 1027 10 16.0934 0 0
3:52 am 03:52 Clear 30 -1.1 19 -7.2 64 64 NNW 8 13 30.33 1027 10 16.0934 0 0
4:52 am 04:52 Partly Cloudy 29 -1.7 18 -7.8 63 63 NNW 8 13 30.35 1028 10 16.0934 0 0
5:52 am 05:52 Mostly Clear 27 -2.8 18 -7.8 69 69 N 9 15 30.38 1029 10 16.0934 0 0
6:52 am 06:52 Clear 27 -2.8 16 -8.9 63 63 NNW 6 9 30.4 1029 10 16.0934 0 0
7:52 am 07:52 Sunny 28 -2.2 17 -8.3 63 63 N 7 11 30.41 1030 10 16.0934 0 0
8:52 am 08:52 Sunny 31 -0.6 17 -8.3 56 56 N 6 9 30.44 1031 10 16.0934 0 0
9:52 am 09:52 Mostly Sunny 35 1.7 15 -9.4 44 44 VRB 3 6 30.45 1031 10 16.0934 0 0
10:52 am 10:52 Mostly Sunny 39 3.9 14 -10 36 36 NNW 8 13 30.46 1032 10 16.0934 0 0
11:52 am 11:52 Mostly Sunny 42 5.6 14 -10 32 32 N 13 20 30.47 1032 10 16.0934 0 0
12:52 pm 12:52 Mostly Sunny 44 6.7 12 -11.1 27 27 VRB 3 6 30.45 1031 10 16.0934 0 0
1:52 pm 13:52 Mostly Sunny 46 7.8 10 -12.2 23 23 NW 8 13 30.43 1031 10 16.0934 0 0
2:52 pm 14:52 Mostly Sunny 48 8.9 10 -12.2 21 21 W 10 17 30.42 1030 10 16.0934 0 0
3:52 pm 15:52 Mostly Sunny 49 9.4 10 -12.2 21 21 W 8 13 30.42 1030 10 16.0934 0 0
4:52 pm 16:52 Mostly Sunny 49 9.4 9 -12.8 20 20 NNE 6 9 30.42 1030 10 16.0934 0 0
5:52 pm 17:52 Partly Cloudy 48 8.9 8 -13.3 19 19 Calm 30.43 1030 10 16.0934 0 0
6:52 pm 18:52 Partly Cloudy 44 6.7 9 -12.8 24 24 Calm 30.43 1031 10 16.0934 0 0
7:52 pm 19:52 Partly Cloudy 42 5.6 12 -11.1 29 29 E 5 7 30.44 1031 10 16.0934 0 0
8:52 pm 20:52 Mostly Cloudy 38 3.3 13 -10.6 36 36 SSE 3 6 30.44 1031 10 16.0934 0 0
9:52 pm 21:52 Mostly Cloudy 35 1.7 14 -10 42 42 Calm 30.45 1031 10 16.0934 0 0
10:52 pm 22:52 Mostly Cloudy 33 0.6 15 -9.4 47 47 Calm 30.46 1031 10 16.0934 0 0
11:52 pm 23:52 Partly Cloudy 34 1.1 17 -8.3 50 50 Calm 30.45 1031 9 14.48406 0 0

Powered by AerisWeather